Starlink 34696

operational
NORAD ID: 64808 Int'l Des: 2025-150 Owner: SPXS Country: US Constellation: starlink
LEOCIRCULAR

About Starlink 34696

Description loading...

Live Position

Loading 3D Globe...

Upcoming Passes

Altitude History

Altitude vs Time

uPlot chart will show altitude changes over time

Two-Line Element Set

1 64808U 25150U 26063.20439739 .00007286 00000-0 61732-3 0 9998
2 64808 70.0064 148.3477 0001757 266.7278 93.3680 14.98358111 35690
Epoch: Mar 4, 2026 • Age: 15 hours

Current Status

Altitude 576.7 km
Velocity 7.58 km/s
Sub-Earth Point 34.92°N, 77.05°W
Launch Date Jul 16, 2025
Age 0.6 years
Type internet

Technical Details

Classification Payload
Mass 575.00 kg
Dry Mass 530.00 kg
Total Mass 575.00 kg
Length 0.30 m
Diameter 4.10 m
Span 29.00 m
Shape Box + pan
Manufacturer SPXS
Bus Type Starlink V2MO
Phase Status In Orbit
Owner/State SPXS/US

Large Constellations

Loading constellations...